Wetterdaten: Freitag, 20.05.2016
Datum Zeit Auen-Temp. Temp gefhlt Luftfeuchte Luftdruck Regen Wind Richtung Richtung Sonnenschein Taupunkt Windben
20.05.2016 00:00 6,7 C 6,2 C 88 % 1018,1 hPa 0,0 mm 10,1 km/h (2 Bft) SW 225 0 min 4,9 C 9,2 km/h (2 Bft)
20.05.2016 00:05 6,7 C 6,2 C 88 % 1018,1 hPa 0,0 mm 9,2 km/h (2 Bft) W-SW 247 0 min 4,9 C 11,9 km/h (2 Bft)
20.05.2016 00:10 6,7 C 6,2 C 88 % 1018,1 hPa 0,0 mm 9,5 km/h (2 Bft) W-SW 247 0 min 4,9 C 8,6 km/h (2 Bft)
20.05.2016 00:15 6,7 C 6,3 C 88 % 1018,2 hPa 0,0 mm 8,9 km/h (2 Bft) S-SO 157 0 min 4,9 C 13,4 km/h (3 Bft)
20.05.2016 00:20 6,6 C 6,3 C 88 % 1018,2 hPa 0,0 mm 7,7 km/h (2 Bft) W 270 0 min 4,8 C 8,3 km/h (2 Bft)
20.05.2016 00:25 6,6 C 6,4 C 88 % 1018,2 hPa 0,0 mm 6,3 km/h (2 Bft) SW 225 0 min 4,8 C 14,0 km/h (3 Bft)
20.05.2016 00:30 6,6 C 6,4 C 88 % 1018,2 hPa 0,0 mm 6,9 km/h (2 Bft) S 180 0 min 4,8 C 14,9 km/h (3 Bft)
20.05.2016 00:35 6,7 C 6,3 C 88 % 1018,3 hPa 0,0 mm 8,9 km/h (2 Bft) SW 225 0 min 4,9 C 18,5 km/h (3 Bft)
20.05.2016 00:40 6,7 C 6,2 C 88 % 1018,3 hPa 0,0 mm 9,8 km/h (2 Bft) O-NO 67 0 min 4,9 C 11,9 km/h (2 Bft)
20.05.2016 00:45 6,8 C 6,4 C 88 % 1018,3 hPa 0,0 mm 8,6 km/h (2 Bft) W 270 0 min 5,0 C 8,6 km/h (2 Bft)
20.05.2016 00:50 6,8 C 6,5 C 87 % 1018,3 hPa 0,0 mm 7,5 km/h (2 Bft) SO 135 0 min 4,8 C 8,9 km/h (2 Bft)
20.05.2016 00:55 6,8 C 6,4 C 87 % 1018,7 hPa 0,0 mm 8,3 km/h (2 Bft) W-SW 247 0 min 4,8 C 6,6 km/h (2 Bft)
20.05.2016 01:00 6,8 C 6,5 C 87 % 1018,7 hPa 0,0 mm 7,5 km/h (2 Bft) SW 225 0 min 4,8 C 11,0 km/h (2 Bft)
20.05.2016 01:05 6,8 C 6,5 C 87 % 1018,7 hPa 0,0 mm 6,9 km/h (2 Bft) SW 225 0 min 4,8 C 9,5 km/h (2 Bft)
20.05.2016 01:10 6,8 C 6,5 C 87 % 1018,7 hPa 0,0 mm 7,7 km/h (2 Bft) W-SW 247 0 min 4,8 C 7,5 km/h (2 Bft)
20.05.2016 01:15 6,8 C 6,5 C 87 % 1018,6 hPa 0,0 mm 7,5 km/h (2 Bft) SW 225 0 min 4,8 C 7,7 km/h (2 Bft)
20.05.2016 01:20 6,8 C 6,5 C 87 % 1018,6 hPa 0,0 mm 7,5 km/h (2 Bft) S 180 0 min 4,8 C 14,9 km/h (3 Bft)
20.05.2016 01:25 6,8 C 6,4 C 86 % 1018,6 hPa 0,0 mm 8,0 km/h (2 Bft) NW 315 0 min 4,6 C 12,2 km/h (2 Bft)
20.05.2016 01:30 6,8 C 6,5 C 86 % 1018,6 hPa 0,0 mm 7,7 km/h (2 Bft) NW 315 0 min 4,6 C 8,6 km/h (2 Bft)
20.05.2016 01:35 6,8 C 6,6 C 86 % 1018,7 hPa 0,0 mm 5,4 km/h (1 Bft) W-SW 247 0 min 4,6 C 3,9 km/h (1 Bft)
20.05.2016 01:40 6,8 C 6,6 C 86 % 1018,7 hPa 0,0 mm 3,9 km/h (1 Bft) SW 225 0 min 4,6 C 4,5 km/h (1 Bft)
20.05.2016 01:45 6,8 C 6,6 C 86 % 1018,7 hPa 0,0 mm 5,4 km/h (1 Bft) N 360 0 min 4,6 C 3,0 km/h (1 Bft)
20.05.2016 01:50 6,8 C 6,5 C 86 % 1018,7 hPa 0,0 mm 7,5 km/h (2 Bft) W-NW 292 0 min 4,6 C 8,3 km/h (2 Bft)
20.05.2016 01:55 6,8 C 6,5 C 86 % 1018,7 hPa 0,0 mm 7,5 km/h (2 Bft) SW 225 0 min 4,6 C 19,4 km/h (3 Bft)
20.05.2016 02:00 6,9 C 6,5 C 86 % 1018,7 hPa 0,0 mm 8,6 km/h (2 Bft) SW 225 0 min 4,7 C 7,2 km/h (2 Bft)
20.05.2016 02:05 6,8 C 6,4 C 86 % 1018,7 hPa 0,0 mm 8,6 km/h (2 Bft) SW 225 0 min 4,6 C 22,1 km/h (4 Bft)
20.05.2016 02:06 6,9 C 6,5 C 86 % 1018,7 hPa 0,0 mm 7,7 km/h (2 Bft) W-SW 247 0 min 4,7 C 10,7 km/h (2 Bft)
20.05.2016 02:09 6,9 C 6,5 C 86 % 1018,7 hPa 0,0 mm 7,7 km/h (2 Bft) W-SW 247 0 min 4,7 C 10,7 km/h (2 Bft)
20.05.2016 02:10 6,9 C 6,5 C 86 % 1018,7 hPa 0,0 mm 7,7 km/h (2 Bft) W-SW 247 0 min 4,7 C 10,7 km/h (2 Bft)
20.05.2016 02:15 6,8 C 6,4 C 86 % 1018,7 hPa 0,0 mm 9,2 km/h (2 Bft) W 270 0 min 4,6 C 16,7 km/h (3 Bft)
20.05.2016 02:20 6,9 C 6,4 C 86 % 1018,7 hPa 0,0 mm 10,1 km/h (2 Bft) S 180 0 min 4,7 C 11,3 km/h (2 Bft)
20.05.2016 02:25 6,9 C 6,4 C 85 % 1018,7 hPa 0,0 mm 10,4 km/h (2 Bft) W-SW 247 0 min 4,6 C 10,4 km/h (2 Bft)
20.05.2016 02:30 6,9 C 6,5 C 85 % 1018,7 hPa 0,0 mm 8,3 km/h (2 Bft) W-SW 247 0 min 4,6 C 7,2 km/h (2 Bft)
20.05.2016 02:35 6,9 C 6,7 C 85 % 1018,6 hPa 0,0 mm 6,6 km/h (2 Bft) SW 225 0 min 4,6 C 9,5 km/h (2 Bft)
20.05.2016 02:40 6,9 C 6,7 C 85 % 1018,6 hPa 0,0 mm 6,6 km/h (2 Bft) W-SW 247 0 min 4,6 C 9,8 km/h (2 Bft)
20.05.2016 02:45 6,9 C 6,7 C 85 % 1018,6 hPa 0,0 mm 6,6 km/h (2 Bft) SW 225 0 min 4,6 C 7,7 km/h (2 Bft)
20.05.2016 02:50 6,9 C 6,8 C 85 % 1018,6 hPa 0,0 mm 5,7 km/h (1 Bft) S 180 0 min 4,6 C 7,2 km/h (2 Bft)
20.05.2016 02:55 6,9 C 6,8 C 85 % 1018,8 hPa 0,0 mm 4,5 km/h (1 Bft) W-SW 247 0 min 4,6 C 9,5 km/h (2 Bft)
20.05.2016 03:00 6,9 C 6,8 C 85 % 1018,8 hPa 0,0 mm 4,5 km/h (1 Bft) SW 225 0 min 4,6 C 7,2 km/h (2 Bft)
20.05.2016 03:05 6,9 C 6,8 C 85 % 1018,8 hPa 0,0 mm 4,5 km/h (1 Bft) SW 225 0 min 4,6 C 4,5 km/h (1 Bft)
20.05.2016 03:10 6,8 C 6,8 C 85 % 1018,8 hPa 0,0 mm 5,1 km/h (1 Bft) W-SW 247 0 min 4,5 C 14,6 km/h (3 Bft)
20.05.2016 03:15 7,0 C 6,9 C 84 % 1018,8 hPa 0,0 mm 6,0 km/h (2 Bft) SW 225 0 min 4,5 C 8,9 km/h (2 Bft)
20.05.2016 03:20 7,0 C 6,8 C 84 % 1018,8 hPa 0,0 mm 8,0 km/h (2 Bft) W-SW 247 0 min 4,5 C 7,2 km/h (2 Bft)
20.05.2016 03:25 7,0 C 6,7 C 84 % 1018,8 hPa 0,0 mm 10,1 km/h (2 Bft) W-SW 247 0 min 4,5 C 8,0 km/h (2 Bft)
20.05.2016 03:30 7,0 C 6,7 C 84 % 1018,8 hPa 0,0 mm 9,8 km/h (2 Bft) W 270 0 min 4,5 C 7,7 km/h (2 Bft)
20.05.2016 03:35 7,0 C 6,8 C 83 % 1018,8 hPa 0,0 mm 7,7 km/h (2 Bft) SW 225 0 min 4,3 C 11,9 km/h (2 Bft)
20.05.2016 03:40 7,0 C 6,9 C 83 % 1018,8 hPa 0,0 mm 6,9 km/h (2 Bft) W-SW 247 0 min 4,3 C 4,8 km/h (1 Bft)
20.05.2016 03:45 7,0 C 6,8 C 83 % 1018,8 hPa 0,0 mm 7,7 km/h (2 Bft) W-SW 247 0 min 4,3 C 6,6 km/h (2 Bft)
20.05.2016 03:50 6,9 C 6,8 C 84 % 1018,8 hPa 0,0 mm 7,7 km/h (2 Bft) S 180 0 min 4,4 C 13,7 km/h (3 Bft)
20.05.2016 03:55 6,9 C 6,9 C 84 % 1019,1 hPa 0,0 mm 6,3 km/h (2 Bft) W-SW 247 0 min 4,4 C 0,0 km/h (0 Bft)
20.05.2016 04:00 6,9 C 6,8 C 84 % 1019,1 hPa 0,0 mm 6,9 km/h (2 Bft) W 270 0 min 4,4 C 8,3 km/h (2 Bft)
20.05.2016 04:05 6,9 C 6,9 C 84 % 1019,1 hPa 0,0 mm 5,4 km/h (1 Bft) SW 225 0 min 4,4 C 5,1 km/h (1 Bft)
20.05.2016 04:10 6,9 C 6,9 C 84 % 1019,1 hPa 0,0 mm 5,4 km/h (1 Bft) SW 225 0 min 4,4 C 7,7 km/h (2 Bft)
20.05.2016 04:15 6,9 C 6,9 C 83 % 1019,1 hPa 0,0 mm 4,2 km/h (1 Bft) SW 225 0 min 4,2 C 0,0 km/h (0 Bft)
20.05.2016 04:20 6,9 C 6,9 C 83 % 1019,1 hPa 0,0 mm 2,4 km/h (1 Bft) O-NO 67 0 min 4,2 C 0,0 km/h (0 Bft)
20.05.2016 04:25 6,9 C 6,9 C 84 % 1019,1 hPa 0,0 mm 2,1 km/h (1 Bft) SW 225 0 min 4,4 C 3,6 km/h (1 Bft)
20.05.2016 04:30 6,9 C 6,9 C 83 % 1019,1 hPa 0,0 mm 3,9 km/h (1 Bft) W 270 0 min 4,2 C 7,7 km/h (2 Bft)
20.05.2016 04:35 7,0 C 7,0 C 83 % 1019,0 hPa 0,0 mm 5,4 km/h (1 Bft) W 270 0 min 4,3 C 8,0 km/h (2 Bft)
20.05.2016 04:40 7,0 C 6,9 C 83 % 1019,0 hPa 0,0 mm 6,9 km/h (2 Bft) SW 225 0 min 4,3 C 11,3 km/h (2 Bft)
20.05.2016 04:45 7,0 C 6,9 C 83 % 1019,0 hPa 0,0 mm 7,5 km/h (2 Bft) O-NO 67 0 min 4,3 C 0,0 km/h (0 Bft)
20.05.2016 04:50 6,8 C 6,9 C 84 % 1019,0 hPa 0,0 mm 5,4 km/h (1 Bft) W-SW 247 0 min 4,3 C 10,1 km/h (2 Bft)
20.05.2016 04:55 6,6 C 6,8 C 85 % 1019,2 hPa 0,0 mm 1,8 km/h (1 Bft) S-SO 157 0 min 4,3 C 0,0 km/h (0 Bft)
20.05.2016 05:00 6,7 C 6,7 C 85 % 1019,2 hPa 0,0 mm 3,6 km/h (1 Bft) SO 135 0 min 4,4 C 0,0 km/h (0 Bft)
20.05.2016 05:05 6,6 C 6,6 C 85 % 1019,2 hPa 0,0 mm 2,7 km/h (1 Bft) N-NW 337 0 min 4,3 C 0,0 km/h (0 Bft)
20.05.2016 05:06 6,6 C 6,6 C 85 % 1019,2 hPa 0,0 mm 1,2 km/h (1 Bft) W-SW 247 0 min 4,3 C 6,3 km/h (2 Bft)
20.05.2016 05:10 6,6 C 6,6 C 85 % 1019,2 hPa 0,0 mm 1,2 km/h (1 Bft) W-SW 247 0 min 4,3 C 6,3 km/h (2 Bft)
20.05.2016 05:15 6,6 C 6,6 C 86 % 1019,2 hPa 0,0 mm 0,9 km/h (0 Bft) W 270 0 min 4,4 C 0,0 km/h (0 Bft)
20.05.2016 05:20 6,7 C 6,7 C 86 % 1019,2 hPa 0,0 mm 2,1 km/h (1 Bft) O-NO 67 0 min 4,5 C 0,0 km/h (0 Bft)
20.05.2016 05:25 6,7 C 6,7 C 86 % 1019,2 hPa 0,0 mm 2,1 km/h (1 Bft) O-SO 112 0 min 4,5 C 0,0 km/h (0 Bft)
20.05.2016 05:30 6,6 C 6,6 C 87 % 1019,2 hPa 0,0 mm 1,2 km/h (1 Bft) O-NO 67 0 min 4,6 C 0,0 km/h (0 Bft)
20.05.2016 05:35 6,6 C 6,6 C 88 % 1019,2 hPa 0,0 mm 0,3 km/h (0 Bft) O-NO 67 0 min 4,8 C 0,0 km/h (0 Bft)
20.05.2016 05:40 6,6 C 6,5 C 88 % 1019,2 hPa 0,0 mm 0,3 km/h (0 Bft) NO 45 0 min 4,8 C 0,0 km/h (0 Bft)
20.05.2016 05:45 6,6 C 6,5 C 88 % 1019,2 hPa 0,0 mm 1,2 km/h (1 Bft) W-SW 247 0 min 4,8 C 5,1 km/h (1 Bft)
20.05.2016 05:50 6,6 C 6,5 C 88 % 1019,2 hPa 0,0 mm 1,5 km/h (1 Bft) N-NW 337 0 min 4,8 C 0,0 km/h (0 Bft)
20.05.2016 05:55 6,6 C 6,5 C 88 % 1019,4 hPa 0,0 mm 1,2 km/h (1 Bft) O-SO 112 0 min 4,8 C 0,0 km/h (0 Bft)
20.05.2016 06:00 6,6 C 6,6 C 88 % 1019,4 hPa 0,0 mm 0,9 km/h (0 Bft) SW 225 0 min 4,8 C 8,0 km/h (2 Bft)
20.05.2016 06:05 6,7 C 6,7 C 89 % 1019,4 hPa 0,0 mm 2,1 km/h (1 Bft) SO 135 0 min 5,0 C 0,0 km/h (0 Bft)
20.05.2016 06:10 6,7 C 6,7 C 89 % 1019,4 hPa 0,0 mm 1,8 km/h (1 Bft) S-SW 202 0 min 5,0 C 0,0 km/h (0 Bft)
20.05.2016 06:15 6,7 C 6,7 C 89 % 1019,6 hPa 0,0 mm 0,0 km/h (0 Bft) O 90 0 min 5,0 C 0,0 km/h (0 Bft)
20.05.2016 06:20 6,7 C 6,7 C 89 % 1019,6 hPa 0,0 mm 0,0 km/h (0 Bft) O 90 0 min 5,0 C 0,0 km/h (0 Bft)
20.05.2016 06:25 6,7 C 6,7 C 89 % 1019,6 hPa 0,0 mm 0,3 km/h (0 Bft) W-SW 247 0 min 5,0 C 0,0 km/h (0 Bft)
20.05.2016 06:30 6,8 C 6,7 C 89 % 1019,6 hPa 0,0 mm 1,8 km/h (1 Bft) O 90 0 min 5,1 C 5,1 km/h (1 Bft)
20.05.2016 06:35 6,9 C 6,9 C 89 % 1019,6 hPa 0,0 mm 4,8 km/h (1 Bft) SW 225 0 min 5,2 C 6,9 km/h (2 Bft)
20.05.2016 06:40 6,9 C 6,9 C 88 % 1019,6 hPa 0,0 mm 4,5 km/h (1 Bft) S-SW 202 0 min 5,1 C 7,5 km/h (2 Bft)
20.05.2016 06:45 6,9 C 6,9 C 88 % 1019,6 hPa 0,0 mm 5,4 km/h (1 Bft) S 180 0 min 5,1 C 10,4 km/h (2 Bft)
20.05.2016 06:50 6,9 C 6,9 C 88 % 1019,6 hPa 0,0 mm 6,9 km/h (2 Bft) W-SW 247 0 min 5,1 C 11,3 km/h (2 Bft)
20.05.2016 06:55 7,0 C 6,9 C 87 % 1020,0 hPa 0,0 mm 8,0 km/h (2 Bft) S 180 0 min 5,0 C 12,2 km/h (2 Bft)
20.05.2016 07:00 7,1 C 6,9 C 87 % 1020,0 hPa 0,0 mm 8,9 km/h (2 Bft) W-SW 247 0 min 5,1 C 11,3 km/h (2 Bft)
20.05.2016 07:05 7,2 C 7,0 C 87 % 1020,0 hPa 0,0 mm 8,6 km/h (2 Bft) SW 225 0 min 5,2 C 10,4 km/h (2 Bft)
20.05.2016 07:10 7,2 C 7,1 C 87 % 1020,0 hPa 0,0 mm 7,5 km/h (2 Bft) SW 225 0 min 5,2 C 5,4 km/h (1 Bft)
20.05.2016 07:15 7,1 C 7,3 C 87 % 1019,9 hPa 0,0 mm 3,0 km/h (1 Bft) SO 135 0 min 5,1 C 0,0 km/h (0 Bft)
20.05.2016 07:20 7,1 C 7,4 C 87 % 1019,9 hPa 0,0 mm 0,3 km/h (0 Bft) N-NW 337 0 min 5,1 C 0,0 km/h (0 Bft)
20.05.2016 07:25 7,3 C 7,5 C 87 % 1019,9 hPa 0,0 mm 0,3 km/h (0 Bft) NO 45 0 min 5,3 C 0,0 km/h (0 Bft)
20.05.2016 07:30 7,4 C 7,7 C 87 % 1019,9 hPa 0,0 mm 0,3 km/h (0 Bft) W 270 0 min 5,4 C 0,0 km/h (0 Bft)
20.05.2016 07:35 7,6 C 7,9 C 87 % 1019,9 hPa 0,0 mm 2,1 km/h (1 Bft) W-SW 247 0 min 5,6 C 7,7 km/h (2 Bft)
20.05.2016 07:40 7,7 C 8,1 C 87 % 1019,9 hPa 0,0 mm 2,1 km/h (1 Bft) O 90 0 min 5,7 C 0,0 km/h (0 Bft)
20.05.2016 07:45 7,9 C 8,4 C 87 % 1019,9 hPa 0,0 mm 1,2 km/h (1 Bft) O-NO 67 0 min 5,9 C 0,0 km/h (0 Bft)
20.05.2016 07:50 8,0 C 8,7 C 87 % 1019,9 hPa 0,0 mm 0,6 km/h (0 Bft) NO 45 0 min 6,0 C 0,0 km/h (0 Bft)
20.05.2016 07:55 8,2 C 9,1 C 86 % 1020,0 hPa 0,0 mm 0,9 km/h (0 Bft) SW 225 0 min 6,0 C 6,9 km/h (2 Bft)
20.05.2016 08:00 8,3 C 9,2 C 86 % 1020,0 hPa 0,0 mm 1,5 km/h (1 Bft) W 270 0 min 6,1 C 3,9 km/h (1 Bft)
20.05.2016 08:05 8,5 C 9,4 C 86 % 1020,0 hPa 0,0 mm 2,1 km/h (1 Bft) W-NW 292 0 min 6,3 C 3,0 km/h (1 Bft)
20.05.2016 08:06 8,7 C 9,7 C 86 % 1020,0 hPa 0,0 mm 1,2 km/h (1 Bft) W 270 0 min 6,5 C 0,0 km/h (0 Bft)
20.05.2016 08:11 9,0 C 10,3 C 85 % 1019,8 hPa 0,0 mm 1,8 km/h (1 Bft) SO 135 0 min 6,6 C 0,0 km/h (0 Bft)
20.05.2016 08:15 9,0 C 10,3 C 85 % 1019,8 hPa 0,0 mm 1,8 km/h (1 Bft) SO 135 0 min 6,6 C 0,0 km/h (0 Bft)
20.05.2016 08:20 9,3 C 10,6 C 85 % 1019,8 hPa 0,0 mm 1,2 km/h (1 Bft) SO 135 0 min 6,9 C 0,0 km/h (0 Bft)
20.05.2016 08:25 9,5 C 11,1 C 85 % 1019,8 hPa 0,0 mm 0,6 km/h (0 Bft) NO 45 0 min 7,1 C 0,0 km/h (0 Bft)
20.05.2016 08:30 9,9 C 11,4 C 84 % 1019,8 hPa 0,0 mm 0,6 km/h (0 Bft) N-NO 22 0 min 7,3 C 0,0 km/h (0 Bft)
20.05.2016 08:35 10,2 C 12,0 C 83 % 1020,1 hPa 0,0 mm 0,0 km/h (0 Bft) NW 315 0 min 7,4 C 0,0 km/h (0 Bft)
20.05.2016 08:40 10,3 C 12,4 C 82 % 1020,1 hPa 0,0 mm 0,3 km/h (0 Bft) W-NW 292 0 min 7,4 C 3,9 km/h (1 Bft)
20.05.2016 08:45 10,4 C 12,6 C 80 % 1020,1 hPa 0,0 mm 1,5 km/h (1 Bft) O-SO 112 5 min 7,1 C 0,0 km/h (0 Bft)
20.05.2016 08:50 10,5 C 12,6 C 79 % 1020,1 hPa 0,0 mm 1,5 km/h (1 Bft) N-NO 22 0 min 7,0 C 0,0 km/h (0 Bft)
20.05.2016 08:55 10,8 C 13,1 C 78 % 1020,4 hPa 0,0 mm 0,9 km/h (0 Bft) W 270 5 min 7,1 C 0,0 km/h (0 Bft)
20.05.2016 09:00 10,8 C 13,3 C 79 % 1020,4 hPa 0,0 mm 0,9 km/h (0 Bft) O-NO 67 5 min 7,3 C 0,0 km/h (0 Bft)
20.05.2016 09:05 10,5 C 13,2 C 78 % 1020,4 hPa 0,0 mm 0,3 km/h (0 Bft) N-NW 337 5 min 6,8 C 0,0 km/h (0 Bft)
20.05.2016 09:10 10,7 C 13,1 C 78 % 1020,4 hPa 0,0 mm 0,6 km/h (0 Bft) NW 315 5 min 7,0 C 4,8 km/h (1 Bft)
20.05.2016 09:15 10,9 C 13,0 C 77 % 1020,9 hPa 0,0 mm 2,4 km/h (1 Bft) NW 315 0 min 7,0 C 7,7 km/h (2 Bft)
20.05.2016 09:20 10,8 C 12,7 C 77 % 1020,9 hPa 0,0 mm 3,9 km/h (1 Bft) N-NO 22 0 min 6,9 C 3,0 km/h (1 Bft)
20.05.2016 09:25 10,8 C 12,3 C 77 % 1020,9 hPa 0,0 mm 4,2 km/h (1 Bft) N-NW 337 0 min 6,9 C 4,8 km/h (1 Bft)
20.05.2016 09:30 10,9 C 12,3 C 77 % 1020,9 hPa 0,0 mm 3,3 km/h (1 Bft) N-NW 337 0 min 7,0 C 6,3 km/h (2 Bft)
20.05.2016 09:35 10,8 C 12,3 C 76 % 1021,1 hPa 0,0 mm 3,3 km/h (1 Bft) NO 45 0 min 6,7 C 0,0 km/h (0 Bft)
20.05.2016 09:40 11,0 C 12,4 C 76 % 1021,1 hPa 0,0 mm 4,2 km/h (1 Bft) NW 315 0 min 6,9 C 4,5 km/h (1 Bft)
20.05.2016 09:45 11,6 C 13,1 C 76 % 1021,1 hPa 0,0 mm 3,6 km/h (1 Bft) NW 315 0 min 7,5 C 5,7 km/h (1 Bft)
20.05.2016 09:50 11,8 C 13,8 C 76 % 1021,1 hPa 0,0 mm 3,9 km/h (1 Bft) O-NO 67 0 min 7,7 C 7,5 km/h (2 Bft)
20.05.2016 09:55 11,9 C 14,2 C 75 % 1020,9 hPa 0,0 mm 3,3 km/h (1 Bft) W-NW 292 5 min 7,6 C 3,6 km/h (1 Bft)
20.05.2016 10:00 12,0 C 14,8 C 74 % 1020,9 hPa 0,0 mm 2,1 km/h (1 Bft) S 180 5 min 7,5 C 0,0 km/h (0 Bft)
20.05.2016 10:05 12,8 C 15,6 C 74 % 1020,9 hPa 0,0 mm 1,8 km/h (1 Bft) N-NO 22 5 min 8,3 C 4,8 km/h (1 Bft)
20.05.2016 10:10 13,7 C 16,8 C 74 % 1020,9 hPa 0,0 mm 2,7 km/h (1 Bft) N-NW 337 5 min 9,2 C 7,2 km/h (2 Bft)
20.05.2016 10:15 14,0 C 18,2 C 73 % 1020,8 hPa 0,0 mm 3,3 km/h (1 Bft) N 360 5 min 9,2 C 0,0 km/h (0 Bft)
20.05.2016 10:20 14,6 C 18,9 C 73 % 1020,8 hPa 0,0 mm 3,6 km/h (1 Bft) NW 315 5 min 9,8 C 6,0 km/h (2 Bft)
20.05.2016 10:25 14,7 C 19,6 C 71 % 1020,8 hPa 0,0 mm 4,5 km/h (1 Bft) N-NO 22 5 min 9,5 C 7,5 km/h (2 Bft)
20.05.2016 10:30 13,3 C 18,7 C 71 % 1020,8 hPa 0,0 mm 3,9 km/h (1 Bft) O-NO 67 5 min 8,2 C 5,7 km/h (1 Bft)
20.05.2016 10:36 12,8 C 18,2 C 70 % 1021,2 hPa 0,0 mm 3,3 km/h (1 Bft) NO 45 5 min 7,5 C 8,0 km/h (2 Bft)
20.05.2016 10:40 14,5 C 17,9 C 70 % 1021,2 hPa 0,0 mm 3,9 km/h (1 Bft) NO 45 4 min 9,1 C 3,9 km/h (1 Bft)
20.05.2016 10:45 12,7 C 17,5 C 70 % 1021,2 hPa 0,0 mm 4,5 km/h (1 Bft) O-SO 112 5 min 7,4 C 3,6 km/h (1 Bft)
20.05.2016 10:50 12,0 C 16,1 C 70 % 1021,2 hPa 0,0 mm 3,6 km/h (1 Bft) O-NO 67 5 min 6,7 C 5,4 km/h (1 Bft)
20.05.2016 10:55 12,1 C 15,0 C 70 % 1021,5 hPa 0,0 mm 4,8 km/h (1 Bft) NO 45 5 min 6,8 C 4,8 km/h (1 Bft)
20.05.2016 11:00 12,0 C 14,7 C 69 % 1021,5 hPa 0,0 mm 4,8 km/h (1 Bft) SO 135 5 min 6,5 C 0,0 km/h (0 Bft)
20.05.2016 11:05 12,4 C 15,0 C 69 % 1021,5 hPa 0,0 mm 3,0 km/h (1 Bft) N-NO 22 5 min 6,9 C 3,0 km/h (1 Bft)
20.05.2016 11:10 14,0 C 15,3 C 68 % 1021,5 hPa 0,0 mm 2,4 km/h (1 Bft) NW 315 0 min 8,2 C 3,9 km/h (1 Bft)
20.05.2016 11:11 13,5 C 16,7 C 67 % 1021,4 hPa 0,0 mm 3,3 km/h (1 Bft) NO 45 1 min 7,5 C 5,1 km/h (1 Bft)
20.05.2016 11:12 13,5 C 16,7 C 67 % 1021,4 hPa 0,0 mm 3,3 km/h (1 Bft) NO 45 1 min 7,5 C 5,1 km/h (1 Bft)
20.05.2016 11:15 13,5 C 16,7 C 67 % 1021,4 hPa 0,0 mm 3,3 km/h (1 Bft) NO 45 3 min 7,5 C 5,1 km/h (1 Bft)
20.05.2016 11:20 14,8 C 17,0 C 67 % 1021,4 hPa 0,0 mm 4,8 km/h (1 Bft) O-NO 67 5 min 8,7 C 14,3 km/h (3 Bft)
20.05.2016 11:25 16,0 C 18,9 C 65 % 1021,4 hPa 0,0 mm 7,2 km/h (2 Bft) N-NO 22 5 min 9,4 C 6,6 km/h (2 Bft)
20.05.2016 11:30 16,5 C 20,0 C 66 % 1021,4 hPa 0,0 mm 6,6 km/h (2 Bft) N-NO 22 5 min 10,1 C 9,5 km/h (2 Bft)
20.05.2016 11:35 16,1 C 20,9 C 65 % 1021,6 hPa 0,0 mm 5,4 km/h (1 Bft) O-NO 67 5 min 9,5 C 3,9 km/h (1 Bft)
20.05.2016 11:40 16,9 C 21,6 C 65 % 1021,6 hPa 0,0 mm 7,5 km/h (2 Bft) NW 315 5 min 10,3 C 9,2 km/h (2 Bft)
20.05.2016 11:45 14,8 C 19,8 C 64 % 1021,6 hPa 0,0 mm 8,0 km/h (2 Bft) N-NO 22 5 min 8,1 C 8,6 km/h (2 Bft)
20.05.2016 11:50 14,5 C 18,2 C 64 % 1021,6 hPa 0,0 mm 7,7 km/h (2 Bft) NW 315 5 min 7,8 C 10,1 km/h (2 Bft)
20.05.2016 11:55 13,7 C 16,8 C 64 % 1021,6 hPa 0,0 mm 6,9 km/h (2 Bft) NO 45 5 min 7,0 C 13,4 km/h (3 Bft)
20.05.2016 12:00 13,1 C 16,0 C 65 % 1021,6 hPa 0,0 mm 6,6 km/h (2 Bft) O-SO 112 5 min 6,7 C 0,0 km/h (0 Bft)
20.05.2016 12:05 13,0 C 15,3 C 66 % 1021,6 hPa 0,0 mm 6,6 km/h (2 Bft) N-NO 22 5 min 6,8 C 10,7 km/h (2 Bft)
20.05.2016 12:10 13,0 C 14,9 C 66 % 1021,6 hPa 0,0 mm 6,6 km/h (2 Bft) O-NO 67 0 min 6,8 C 12,2 km/h (2 Bft)
20.05.2016 12:15 12,9 C 14,3 C 66 % 1021,5 hPa 0,0 mm 7,7 km/h (2 Bft) O-NO 67 0 min 6,7 C 8,6 km/h (2 Bft)
20.05.2016 12:20 12,9 C 14,3 C 67 % 1021,5 hPa 0,0 mm 7,5 km/h (2 Bft) N-NW 337 0 min 6,9 C 9,8 km/h (2 Bft)
20.05.2016 12:25 13,1 C 14,4 C 67 % 1021,5 hPa 0,0 mm 7,5 km/h (2 Bft) N-NO 22 0 min 7,1 C 11,3 km/h (2 Bft)
20.05.2016 12:30 13,2 C 14,5 C 67 % 1021,5 hPa 0,0 mm 8,3 km/h (2 Bft) O-NO 67 0 min 7,2 C 8,9 km/h (2 Bft)
20.05.2016 12:35 13,6 C 14,7 C 67 % 1021,4 hPa 0,0 mm 9,2 km/h (2 Bft) O-NO 67 0 min 7,6 C 9,5 km/h (2 Bft)
20.05.2016 12:40 13,5 C 15,0 C 67 % 1021,4 hPa 0,0 mm 7,7 km/h (2 Bft) NO 45 0 min 7,5 C 9,5 km/h (2 Bft)
20.05.2016 12:45 13,5 C 15,5 C 67 % 1021,4 hPa 0,0 mm 6,3 km/h (2 Bft) N-NO 22 0 min 7,5 C 8,3 km/h (2 Bft)
20.05.2016 12:50 13,8 C 15,7 C 67 % 1021,4 hPa 0,0 mm 6,3 km/h (2 Bft) O-NO 67 0 min 7,8 C 7,7 km/h (2 Bft)
20.05.2016 12:55 14,0 C 16,2 C 66 % 1021,2 hPa 0,0 mm 6,0 km/h (2 Bft) O-NO 67 5 min 7,7 C 8,6 km/h (2 Bft)
20.05.2016 13:00 14,1 C 16,4 C 65 % 1021,2 hPa 0,0 mm 6,3 km/h (2 Bft) NO 45 5 min 7,6 C 7,5 km/h (2 Bft)
20.05.2016 13:05 14,9 C 16,9 C 65 % 1021,2 hPa 0,0 mm 5,7 km/h (1 Bft) O 90 0 min 8,4 C 4,2 km/h (1 Bft)
20.05.2016 13:10 14,8 C 17,7 C 64 % 1021,2 hPa 0,0 mm 4,8 km/h (1 Bft) O-SO 112 5 min 8,1 C 6,0 km/h (2 Bft)
20.05.2016 13:15 15,4 C 18,7 C 64 % 1021,1 hPa 0,0 mm 3,9 km/h (1 Bft) N-NO 22 5 min 8,6 C 3,3 km/h (1 Bft)
20.05.2016 13:20 15,8 C 18,8 C 64 % 1021,1 hPa 0,0 mm 5,1 km/h (1 Bft) NO 45 5 min 9,0 C 12,8 km/h (3 Bft)
20.05.2016 13:25 15,7 C 18,8 C 64 % 1021,1 hPa 0,0 mm 4,8 km/h (1 Bft) O-NO 67 5 min 8,9 C 5,4 km/h (1 Bft)
20.05.2016 13:30 15,4 C 18,6 C 63 % 1021,1 hPa 0,0 mm 6,3 km/h (2 Bft) N-NO 22 5 min 8,4 C 12,5 km/h (3 Bft)
20.05.2016 13:35 15,1 C 18,5 C 63 % 1021,1 hPa 0,0 mm 4,5 km/h (1 Bft) W-SW 247 5 min 8,1 C 0,0 km/h (0 Bft)
20.05.2016 13:40 15,1 C 18,8 C 63 % 1021,1 hPa 0,0 mm 3,0 km/h (1 Bft) S-SO 157 5 min 8,1 C 3,3 km/h (1 Bft)
20.05.2016 13:45 14,6 C 18,1 C 63 % 1021,1 hPa 0,0 mm 3,0 km/h (1 Bft) O-NO 67 5 min 7,6 C 7,5 km/h (2 Bft)
20.05.2016 13:50 14,7 C 17,4 C 63 % 1021,1 hPa 0,0 mm 4,2 km/h (1 Bft) N-NO 22 5 min 7,7 C 8,0 km/h (2 Bft)
20.05.2016 13:55 14,8 C 17,1 C 63 % 1021,0 hPa 0,0 mm 3,3 km/h (1 Bft) N-NO 22 5 min 7,8 C 7,2 km/h (2 Bft)
20.05.2016 14:00 14,3 C 16,6 C 63 % 1021,0 hPa 0,0 mm 3,0 km/h (1 Bft) NW 315 5 min 7,4 C 5,1 km/h (1 Bft)
20.05.2016 14:05 14,5 C 16,3 C 64 % 1021,0 hPa 0,0 mm 4,2 km/h (1 Bft) N-NW 337 0 min 7,8 C 6,3 km/h (2 Bft)
20.05.2016 14:10 14,4 C 16,2 C 64 % 1021,0 hPa 0,0 mm 5,1 km/h (1 Bft) NW 315 0 min 7,7 C 14,0 km/h (3 Bft)
20.05.2016 14:11 14,7 C 16,1 C 64 % 1021,0 hPa 0,0 mm 7,5 km/h (2 Bft) NO 45 0 min 8,0 C 6,6 km/h (2 Bft)
20.05.2016 14:13 14,7 C 16,1 C 64 % 1021,0 hPa 0,0 mm 7,5 km/h (2 Bft) NO 45 0 min 8,0 C 6,6 km/h (2 Bft)
20.05.2016 14:15 14,7 C 16,1 C 64 % 1021,0 hPa 0,0 mm 7,5 km/h (2 Bft) NO 45 0 min 8,0 C 6,6 km/h (2 Bft)
20.05.2016 14:20 14,9 C 16,2 C 64 % 1021,0 hPa 0,0 mm 6,0 km/h (2 Bft) NW 315 0 min 8,2 C 4,8 km/h (1 Bft)
20.05.2016 14:25 15,1 C 16,6 C 63 % 1021,0 hPa 0,0 mm 4,8 km/h (1 Bft) N 360 0 min 8,1 C 8,0 km/h (2 Bft)
20.05.2016 14:30 15,1 C 16,6 C 63 % 1021,0 hPa 0,0 mm 6,0 km/h (2 Bft) N-NO 22 0 min 8,1 C 8,0 km/h (2 Bft)
20.05.2016 14:35 15,2 C 17,4 C 63 % 1020,8 hPa 0,0 mm 5,1 km/h (1 Bft) SW 225 5 min 8,2 C 5,4 km/h (1 Bft)
20.05.2016 14:40 15,9 C 18,2 C 64 % 1020,8 hPa 0,0 mm 3,3 km/h (1 Bft) O-NO 67 5 min 9,1 C 4,2 km/h (1 Bft)
20.05.2016 14:45 15,6 C 19,0 C 63 % 1020,8 hPa 0,0 mm 4,5 km/h (1 Bft) NO 45 5 min 8,6 C 11,9 km/h (2 Bft)
20.05.2016 14:50 17,3 C 19,0 C 63 % 1020,8 hPa 0,0 mm 4,5 km/h (1 Bft) W 270 0 min 10,2 C 0,0 km/h (0 Bft)
20.05.2016 14:55 15,9 C 19,5 C 62 % 1020,6 hPa 0,0 mm 8,0 km/h (2 Bft) N 360 5 min 8,6 C 11,9 km/h (2 Bft)
20.05.2016 15:00 15,6 C 18,5 C 63 % 1020,6 hPa 0,0 mm 8,0 km/h (2 Bft) N-NW 337 5 min 8,6 C 6,6 km/h (2 Bft)
20.05.2016 15:05 15,7 C 17,9 C 63 % 1020,6 hPa 0,0 mm 5,1 km/h (1 Bft) W-NW 292 5 min 8,7 C 5,4 km/h (1 Bft)
20.05.2016 15:10 15,2 C 17,6 C 62 % 1020,6 hPa 0,0 mm 4,8 km/h (1 Bft) O-NO 67 5 min 8,0 C 6,9 km/h (2 Bft)
20.05.2016 15:15 15,2 C 17,0 C 62 % 1020,7 hPa 0,0 mm 4,2 km/h (1 Bft) W 270 0 min 8,0 C 0,0 km/h (0 Bft)
20.05.2016 15:20 15,2 C 17,0 C 62 % 1020,7 hPa 0,0 mm 2,7 km/h (1 Bft) NW 315 0 min 8,0 C 5,7 km/h (1 Bft)
20.05.2016 15:25 15,4 C 17,1 C 62 % 1020,7 hPa 0,0 mm 1,5 km/h (1 Bft) NO 45 0 min 8,2 C 0,0 km/h (0 Bft)
20.05.2016 15:30 15,2 C 17,1 C 61 % 1020,7 hPa 0,0 mm 2,7 km/h (1 Bft) O-SO 112 0 min 7,7 C 3,0 km/h (1 Bft)
20.05.2016 15:35 16,3 C 18,3 C 62 % 1020,6 hPa 0,0 mm 3,0 km/h (1 Bft) W-NW 292 0 min 9,0 C 0,0 km/h (0 Bft)
20.05.2016 15:40 17,4 C 18,9 C 62 % 1020,6 hPa 0,0 mm 2,7 km/h (1 Bft) NW 315 0 min 10,0 C 6,6 km/h (2 Bft)
20.05.2016 15:45 18,2 C 20,6 C 60 % 1020,6 hPa 0,0 mm 3,3 km/h (1 Bft) W 270 5 min 10,3 C 0,0 km/h (0 Bft)
20.05.2016 15:50 17,9 C 21,4 C 59 % 1020,6 hPa 0,0 mm 3,0 km/h (1 Bft) O-SO 112 5 min 9,8 C 5,1 km/h (1 Bft)
20.05.2016 15:55 17,0 C 21,5 C 59 % 1020,7 hPa 0,0 mm 4,8 km/h (1 Bft) NW 315 5 min 8,9 C 6,9 km/h (2 Bft)
20.05.2016 16:00 17,1 C 22,2 C 59 % 1020,7 hPa 0,0 mm 5,1 km/h (1 Bft) O-SO 112 5 min 9,0 C 0,0 km/h (0 Bft)
20.05.2016 16:05 17,2 C 22,6 C 59 % 1020,7 hPa 0,0 mm 1,2 km/h (1 Bft) SO 135 5 min 9,1 C 0,0 km/h (0 Bft)
20.05.2016 16:10 16,6 C 23,7 C 59 % 1020,7 hPa 0,0 mm 0,0 km/h (0 Bft) O-SO 112 5 min 8,6 C 0,0 km/h (0 Bft)
20.05.2016 16:15 16,0 C 22,8 C 58 % 1020,4 hPa 0,0 mm 0,3 km/h (0 Bft) O-SO 112 5 min 7,7 C 0,0 km/h (0 Bft)
20.05.2016 16:20 16,0 C 23,1 C 58 % 1020,4 hPa 0,0 mm 0,3 km/h (0 Bft) O-SO 112 5 min 7,7 C 0,0 km/h (0 Bft)
20.05.2016 16:25 16,2 C 22,4 C 59 % 1020,4 hPa 0,0 mm 0,0 km/h (0 Bft) O-SO 112 5 min 8,2 C 0,0 km/h (0 Bft)
20.05.2016 16:30 16,4 C 21,6 C 59 % 1020,4 hPa 0,0 mm 0,0 km/h (0 Bft) O-SO 112 5 min 8,4 C 0,0 km/h (0 Bft)
20.05.2016 16:35 17,4 C 22,4 C 60 % 1020,3 hPa 0,0 mm 0,0 km/h (0 Bft) O-NO 67 5 min 9,6 C 0,0 km/h (0 Bft)
20.05.2016 16:40 16,8 C 22,6 C 59 % 1020,3 hPa 0,0 mm 0,0 km/h (0 Bft) O-SO 112 5 min 8,7 C 0,0 km/h (0 Bft)
20.05.2016 16:45 16,7 C 21,4 C 59 % 1020,3 hPa 0,0 mm 0,0 km/h (0 Bft) O 90 5 min 8,6 C 0,0 km/h (0 Bft)
20.05.2016 16:50 16,5 C 20,6 C 59 % 1020,3 hPa 0,0 mm 0,0 km/h (0 Bft) O-SO 112 5 min 8,5 C 0,0 km/h (0 Bft)
20.05.2016 16:55 16,5 C 20,2 C 59 % 1020,2 hPa 0,0 mm 0,0 km/h (0 Bft) O 90 5 min 8,5 C 0,0 km/h (0 Bft)
20.05.2016 17:00 16,9 C 20,1 C 59 % 1020,2 hPa 0,0 mm 0,0 km/h (0 Bft) O-SO 112 5 min 8,8 C 0,0 km/h (0 Bft)
20.05.2016 17:05 17,0 C 20,3 C 59 % 1020,2 hPa 0,0 mm 0,0 km/h (0 Bft) O-SO 112 5 min 8,9 C 0,0 km/h (0 Bft)
20.05.2016 17:10 16,4 C 19,8 C 58 % 1020,2 hPa 0,0 mm 0,0 km/h (0 Bft) O-SO 112 5 min 8,1 C 0,0 km/h (0 Bft)
20.05.2016 17:11 16,2 C 19,2 C 58 % 1020,1 hPa 0,0 mm 0,0 km/h (0 Bft) O-SO 112 1 min 7,9 C 0,0 km/h (0 Bft)
20.05.2016 17:14 16,2 C 19,2 C 58 % 1020,1 hPa 0,0 mm 0,0 km/h (0 Bft) O-SO 112 3 min 7,9 C 0,0 km/h (0 Bft)
20.05.2016 17:20 16,1 C 18,7 C 59 % 1020,1 hPa 0,0 mm 0,0 km/h (0 Bft) O-NO 67 5 min 8,1 C 0,0 km/h (0 Bft)
20.05.2016 17:25 16,7 C 18,0 C 58 % 1020,1 hPa 0,0 mm 0,0 km/h (0 Bft) O-SO 112 0 min 8,4 C 0,0 km/h (0 Bft)
20.05.2016 17:30 17,2 C 17,7 C 58 % 1020,1 hPa 0,0 mm 0,0 km/h (0 Bft) O-NO 67 0 min 8,9 C 0,0 km/h (0 Bft)
20.05.2016 17:35 16,3 C 17,2 C 58 % 1020,1 hPa 0,0 mm 0,0 km/h (0 Bft) O-SO 112 0 min 8,0 C 0,0 km/h (0 Bft)
20.05.2016 17:40 15,6 C 16,8 C 58 % 1020,1 hPa 0,0 mm 0,0 km/h (0 Bft) O-SO 112 0 min 7,4 C 0,0 km/h (0 Bft)
20.05.2016 17:45 14,8 C 16,1 C 60 % 1020,1 hPa 0,0 mm 0,0 km/h (0 Bft) S-SO 157 0 min 7,1 C 0,0 km/h (0 Bft)
20.05.2016 17:50 14,7 C 15,6 C 61 % 1020,1 hPa 0,0 mm 0,0 km/h (0 Bft) S-SO 157 0 min 7,3 C 0,0 km/h (0 Bft)
20.05.2016 17:55 15,2 C 15,3 C 62 % 1019,9 hPa 0,0 mm 0,0 km/h (0 Bft) S-SO 157 0 min 8,0 C 0,0 km/h (0 Bft)
20.05.2016 18:00 16,7 C 16,6 C 62 % 1019,9 hPa 0,0 mm 1,2 km/h (1 Bft) S-SO 157 0 min 9,4 C 0,0 km/h (0 Bft)
20.05.2016 18:05 18,9 C 18,9 C 61 % 1019,9 hPa 0,0 mm 1,5 km/h (1 Bft) SO 135 0 min 11,2 C 3,0 km/h (1 Bft)
20.05.2016 18:10 18,7 C 20,4 C 59 % 1019,9 hPa 0,0 mm 0,6 km/h (0 Bft) SO 135 0 min 10,5 C 3,0 km/h (1 Bft)
20.05.2016 18:15 18,7 C 21,0 C 58 % 1019,9 hPa 0,0 mm 1,2 km/h (1 Bft) NW 315 5 min 10,3 C 0,0 km/h (0 Bft)
20.05.2016 18:20 17,2 C 20,3 C 58 % 1019,9 hPa 0,0 mm 1,2 km/h (1 Bft) NW 315 5 min 8,9 C 0,0 km/h (0 Bft)
20.05.2016 18:25 16,9 C 19,0 C 58 % 1019,9 hPa 0,0 mm 0,3 km/h (0 Bft) NW 315 0 min 8,6 C 0,0 km/h (0 Bft)
20.05.2016 18:30 16,9 C 18,4 C 58 % 1019,9 hPa 0,0 mm 0,0 km/h (0 Bft) NW 315 0 min 8,6 C 0,0 km/h (0 Bft)
20.05.2016 18:35 16,3 C 17,8 C 57 % 1020,0 hPa 0,0 mm 0,0 km/h (0 Bft) N-NW 337 0 min 7,8 C 0,0 km/h (0 Bft)
20.05.2016 18:40 16,1 C 17,4 C 57 % 1020,0 hPa 0,0 mm 0,6 km/h (0 Bft) O-NO 67 0 min 7,6 C 6,3 km/h (2 Bft)
20.05.2016 18:45 15,9 C 17,1 C 59 % 1020,0 hPa 0,0 mm 2,1 km/h (1 Bft) S-SO 157 0 min 7,9 C 6,3 km/h (2 Bft)
20.05.2016 18:50 16,1 C 17,1 C 59 % 1020,0 hPa 0,0 mm 2,1 km/h (1 Bft) SO 135 0 min 8,1 C 0,0 km/h (0 Bft)
20.05.2016 18:55 15,9 C 16,7 C 60 % 1020,0 hPa 0,0 mm 2,7 km/h (1 Bft) SO 135 0 min 8,1 C 29,5 km/h (5 Bft)
20.05.2016 19:00 16,3 C 16,4 C 60 % 1020,0 hPa 0,0 mm 2,4 km/h (1 Bft) O-SO 112 0 min 8,5 C 0,0 km/h (0 Bft)
20.05.2016 19:05 17,8 C 17,3 C 60 % 1020,0 hPa 0,0 mm 1,2 km/h (1 Bft) SO 135 0 min 9,9 C 0,0 km/h (0 Bft)
20.05.2016 19:10 18,5 C 18,0 C 58 % 1020,0 hPa 0,0 mm 0,6 km/h (0 Bft) SO 135 0 min 10,1 C 9,8 km/h (2 Bft)
20.05.2016 19:15 17,6 C 19,2 C 55 % 1019,9 hPa 0,0 mm 0,9 km/h (0 Bft) N-NW 337 0 min 8,5 C 0,0 km/h (0 Bft)
20.05.2016 19:20 17,8 C 19,2 C 55 % 1019,9 hPa 0,0 mm 0,9 km/h (0 Bft) N-NO 22 0 min 8,6 C 0,0 km/h (0 Bft)
20.05.2016 19:25 17,2 C 18,3 C 54 % 1019,9 hPa 0,0 mm 0,3 km/h (0 Bft) O-NO 67 0 min 7,8 C 0,0 km/h (0 Bft)
20.05.2016 19:30 16,7 C 17,7 C 54 % 1019,9 hPa 0,0 mm 0,3 km/h (0 Bft) N-NW 337 0 min 7,3 C 9,5 km/h (2 Bft)
20.05.2016 19:35 16,2 C 17,0 C 56 % 1020,0 hPa 0,0 mm 0,9 km/h (0 Bft) W 270 0 min 7,4 C 0,0 km/h (0 Bft)
20.05.2016 19:40 16,3 C 16,8 C 56 % 1020,0 hPa 0,0 mm 0,9 km/h (0 Bft) NW 315 0 min 7,5 C 3,3 km/h (1 Bft)
20.05.2016 19:45 16,1 C 17,4 C 56 % 1020,0 hPa 0,0 mm 0,3 km/h (0 Bft) NW 315 0 min 7,3 C 4,2 km/h (1 Bft)
20.05.2016 19:50 16,3 C 17,4 C 56 % 1020,0 hPa 0,0 mm 0,3 km/h (0 Bft) W 270 0 min 7,5 C 0,0 km/h (0 Bft)
20.05.2016 19:55 15,7 C 17,4 C 58 % 1020,1 hPa 0,0 mm 0,3 km/h (0 Bft) W 270 0 min 7,5 C 0,0 km/h (0 Bft)
20.05.2016 20:00 15,8 C 16,9 C 58 % 1020,1 hPa 0,0 mm 0,0 km/h (0 Bft) W 270 0 min 7,6 C 0,0 km/h (0 Bft)
20.05.2016 20:05 15,7 C 16,3 C 59 % 1020,1 hPa 0,0 mm 0,0 km/h (0 Bft) S-SO 157 0 min 7,7 C 0,0 km/h (0 Bft)
20.05.2016 20:10 15,3 C 15,9 C 59 % 1020,1 hPa 0,0 mm 0,0 km/h (0 Bft) NW 315 0 min 7,3 C 0,0 km/h (0 Bft)
20.05.2016 20:11 14,8 C 15,4 C 60 % 1020,2 hPa 0,0 mm 0,0 km/h (0 Bft) NW 315 0 min 7,1 C 0,0 km/h (0 Bft)
20.05.2016 20:15 14,8 C 15,4 C 60 % 1020,2 hPa 0,0 mm 0,0 km/h (0 Bft) NW 315 0 min 7,1 C 0,0 km/h (0 Bft)
20.05.2016 20:20 14,4 C 15,0 C 62 % 1020,2 hPa 0,0 mm 0,0 km/h (0 Bft) NW 315 0 min 7,2 C 0,0 km/h (0 Bft)
20.05.2016 20:25 13,6 C 14,5 C 63 % 1020,2 hPa 0,0 mm 0,0 km/h (0 Bft) NW 315 0 min 6,7 C 0,0 km/h (0 Bft)
20.05.2016 20:30 12,8 C 14,2 C 65 % 1020,2 hPa 0,0 mm 0,0 km/h (0 Bft) NW 315 0 min 6,4 C 0,0 km/h (0 Bft)
20.05.2016 20:35 12,1 C 13,6 C 67 % 1020,1 hPa 0,0 mm 0,0 km/h (0 Bft) NW 315 0 min 6,2 C 0,0 km/h (0 Bft)
20.05.2016 20:40 11,6 C 13,3 C 68 % 1020,1 hPa 0,0 mm 0,0 km/h (0 Bft) N-NO 22 0 min 5,9 C 0,0 km/h (0 Bft)
20.05.2016 20:45 11,4 C 12,7 C 70 % 1020,1 hPa 0,0 mm 0,0 km/h (0 Bft) S 180 0 min 6,1 C 0,0 km/h (0 Bft)
20.05.2016 20:50 11,4 C 12,1 C 73 % 1020,1 hPa 0,0 mm 0,0 km/h (0 Bft) S 180 0 min 6,7 C 0,0 km/h (0 Bft)
20.05.2016 20:55 11,4 C 11,6 C 73 % 1020,1 hPa 0,0 mm 0,0 km/h (0 Bft) S 180 0 min 6,7 C 0,0 km/h (0 Bft)
20.05.2016 21:00 11,2 C 11,3 C 73 % 1020,1 hPa 0,0 mm 0,0 km/h (0 Bft) S 180 0 min 6,5 C 0,0 km/h (0 Bft)
20.05.2016 21:05 10,8 C 10,8 C 74 % 1020,1 hPa 0,0 mm 0,0 km/h (0 Bft) S-SO 157 0 min 6,4 C 0,0 km/h (0 Bft)
20.05.2016 21:10 10,8 C 10,7 C 74 % 1020,1 hPa 0,0 mm 0,0 km/h (0 Bft) S 180 0 min 6,4 C 0,0 km/h (0 Bft)
20.05.2016 21:15 10,5 C 10,4 C 75 % 1020,3 hPa 0,0 mm 0,0 km/h (0 Bft) S 180 0 min 6,3 C 0,0 km/h (0 Bft)
20.05.2016 21:20 10,3 C 10,2 C 75 % 1020,3 hPa 0,0 mm 0,0 km/h (0 Bft) S 180 0 min 6,1 C 0,0 km/h (0 Bft)
20.05.2016 21:25 10,1 C 10,0 C 76 % 1020,3 hPa 0,0 mm 0,0 km/h (0 Bft) S-SO 157 0 min 6,1 C 0,0 km/h (0 Bft)
20.05.2016 21:30 10,3 C 10,2 C 76 % 1020,3 hPa 0,0 mm 0,0 km/h (0 Bft) S-SO 157 0 min 6,3 C 0,0 km/h (0 Bft)
20.05.2016 21:35 10,2 C 10,1 C 76 % 1020,4 hPa 0,0 mm 0,0 km/h (0 Bft) S-SW 202 0 min 6,2 C 0,0 km/h (0 Bft)
20.05.2016 21:40 10,2 C 10,1 C 77 % 1020,4 hPa 0,0 mm 0,0 km/h (0 Bft) SW 225 0 min 6,4 C 0,0 km/h (0 Bft)
20.05.2016 21:45 10,1 C 10,0 C 77 % 1020,4 hPa 0,0 mm 0,0 km/h (0 Bft) S-SO 157 0 min 6,3 C 0,0 km/h (0 Bft)
20.05.2016 21:50 10,2 C 10,0 C 78 % 1020,4 hPa 0,0 mm 0,0 km/h (0 Bft) S-SO 157 0 min 6,5 C 0,0 km/h (0 Bft)
20.05.2016 21:55 10,2 C 10,0 C 78 % 1020,3 hPa 0,0 mm 0,0 km/h (0 Bft) S 180 0 min 6,5 C 0,0 km/h (0 Bft)
20.05.2016 22:00 10,2 C 10,1 C 78 % 1020,3 hPa 0,0 mm 0,0 km/h (0 Bft) S-SO 157 0 min 6,5 C 0,0 km/h (0 Bft)
20.05.2016 22:05 10,1 C 10,0 C 78 % 1020,3 hPa 0,0 mm 0,0 km/h (0 Bft) S-SO 157 0 min 6,4 C 0,0 km/h (0 Bft)
20.05.2016 22:10 10,2 C 10,0 C 79 % 1020,3 hPa 0,0 mm 0,0 km/h (0 Bft) S 180 0 min 6,7 C 0,0 km/h (0 Bft)
20.05.2016 22:15 10,0 C 9,8 C 79 % 1020,2 hPa 0,0 mm 0,0 km/h (0 Bft) S-SO 157 0 min 6,5 C 0,0 km/h (0 Bft)
20.05.2016 22:20 9,9 C 9,7 C 79 % 1020,2 hPa 0,0 mm 0,0 km/h (0 Bft) SO 135 0 min 6,4 C 0,0 km/h (0 Bft)
20.05.2016 22:25 9,7 C 9,6 C 79 % 1020,2 hPa 0,0 mm 0,0 km/h (0 Bft) S-SO 157 0 min 6,2 C 0,0 km/h (0 Bft)
20.05.2016 22:30 9,6 C 9,4 C 79 % 1020,2 hPa 0,0 mm 0,0 km/h (0 Bft) SO 135 0 min 6,1 C 0,0 km/h (0 Bft)
20.05.2016 22:35 9,4 C 9,2 C 80 % 1020,5 hPa 0,0 mm 0,0 km/h (0 Bft) SO 135 0 min 6,1 C 0,0 km/h (0 Bft)
20.05.2016 22:40 9,1 C 8,9 C 80 % 1020,5 hPa 0,0 mm 0,0 km/h (0 Bft) S 180 0 min 5,8 C 0,0 km/h (0 Bft)
20.05.2016 22:45 9,1 C 8,8 C 81 % 1020,5 hPa 0,0 mm 0,0 km/h (0 Bft) SO 135 0 min 6,0 C 0,0 km/h (0 Bft)
20.05.2016 22:50 9,1 C 8,8 C 81 % 1020,5 hPa 0,0 mm 0,0 km/h (0 Bft) NO 45 0 min 6,0 C 0,0 km/h (0 Bft)
20.05.2016 22:55 8,8 C 8,5 C 81 % 1020,4 hPa 0,0 mm 0,0 km/h (0 Bft) O-SO 112 0 min 5,7 C 0,0 km/h (0 Bft)
20.05.2016 23:00 8,7 C 8,4 C 81 % 1020,4 hPa 0,0 mm 0,0 km/h (0 Bft) O-SO 112 0 min 5,6 C 0,0 km/h (0 Bft)
20.05.2016 23:05 8,7 C 8,4 C 82 % 1020,4 hPa 0,0 mm 0,0 km/h (0 Bft) S-SO 157 0 min 5,8 C 0,0 km/h (0 Bft)
20.05.2016 23:10 8,6 C 8,3 C 82 % 1020,4 hPa 0,0 mm 0,0 km/h (0 Bft) W-SW 247 0 min 5,7 C 0,0 km/h (0 Bft)
20.05.2016 23:11 8,2 C 7,9 C 81 % 1020,3 hPa 0,0 mm 0,0 km/h (0 Bft) W-NW 292 0 min 5,1 C 0,0 km/h (0 Bft)
20.05.2016 23:16 8,0 C 7,7 C 81 % 1020,3 hPa 0,0 mm 0,0 km/h (0 Bft) W-NW 292 0 min 4,9 C 0,0 km/h (0 Bft)
20.05.2016 23:20 8,0 C 7,7 C 81 % 1020,3 hPa 0,0 mm 0,0 km/h (0 Bft) W-NW 292 0 min 4,9 C 0,0 km/h (0 Bft)
20.05.2016 23:25 7,8 C 7,5 C 81 % 1020,3 hPa 0,0 mm 0,0 km/h (0 Bft) W-SW 247 0 min 4,7 C 0,0 km/h (0 Bft)
20.05.2016 23:30 8,0 C 7,6 C 82 % 1020,3 hPa 0,0 mm 0,0 km/h (0 Bft) SO 135 0 min 5,1 C 0,0 km/h (0 Bft)
20.05.2016 23:35 8,0 C 7,7 C 82 % 1020,4 hPa 0,0 mm 0,0 km/h (0 Bft) S 180 0 min 5,1 C 0,0 km/h (0 Bft)
20.05.2016 23:40 8,0 C 7,7 C 82 % 1020,4 hPa 0,0 mm 0,0 km/h (0 Bft) W-SW 247 0 min 5,1 C 0,0 km/h (0 Bft)
20.05.2016 23:45 7,9 C 7,6 C 83 % 1020,4 hPa 0,0 mm 0,0 km/h (0 Bft) S 180 0 min 5,2 C 0,0 km/h (0 Bft)
20.05.2016 23:50 8,0 C 7,7 C 83 % 1020,4 hPa 0,0 mm 0,0 km/h (0 Bft) S 180 0 min 5,3 C 0,0 km/h (0 Bft)
20.05.2016 23:55 7,8 C 7,5 C 83 % 1020,3 hPa 0,0 mm 0,0 km/h (0 Bft) O-SO 112 0 min 5,1 C 0,0 km/h (0 Bft)
_ Min-Zeit 06:00 00:40 19:30 00:10 - 23:55 - - - 04:30 23:55
Minimum _ 6,6 C 6,2 C 54 % 1018,1 hPa - 0,0 km/h (0 Bft) - - - 4,2 C 0,0 km/h (0 Bft)
_ Max-Zeit 18:05 16:10 06:35 12:10 23:55 02:25 - - 18:20 18:05 18:55
Maximum _ 18,9 C 23,7 C 89 % 1021,6 hPa 0,0 mm 10,4 km/h
W-SW (2 Bft)
- - 5 min 11,2 C 29,5 km/h
SO (5 Bft)
Durchschnitt _ 11,3 C 12,5 C 74 % 1020,1 hPa #0,0 mm 3,3 km/h (1 Bft) W-SW - #6:03 h 6,6 C 4,3 km/h (1 Bft)